This is the latest recevied weather packets stored in our database for station/object OK1FET-4. If no packets are shown the sender has not sent any weather packets the latest 10 day(s).
| Time | Temp. | Humidity | Pressure | Rain* | Wind** | Luminosity | Snow |
|---|---|---|---|---|---|---|---|
| 1788335333 | 18.89° C | 64% | 1022.5 hPa | - | - | - | - |
| 1788335032 | 18.33° C | 65% | 1022.5 hPa | - | - | - | - |
| 1788334731 | 18.33° C | 66% | 1022.5 hPa | - | - | - | - |
| 1788334430 | 17.78° C | 67% | 1022.6 hPa | - | - | - | - |
| 1788334130 | 17.78° C | 68% | 1022.6 hPa | - | - | - | - |
| 1788333829 | 17.22° C | 67% | 1022.6 hPa | - | - | - | - |
| 1788333528 | 17.22° C | 69% | 1022.6 hPa | - | - | - | - |
| 1788333227 | 16.67° C | 72% | 1022.6 hPa | - | - | - | - |
| 1788332926 | 16.11° C | 72% | 1022.6 hPa | - | - | - | - |
| 1788332626 | 16.11° C | 73% | 1022.6 hPa | - | - | - | - |
| 1788332325 | 16.11° C | 75% | 1022.7 hPa | - | - | - | - |
| 1788332024 | 16.11° C | 78% | 1022.6 hPa | - | - | - | - |
| 1788331723 | 16.11° C | 77% | 1022.6 hPa | - | - | - | - |
| 1788331423 | 15.56° C | 76% | 1022.5 hPa | - | - | - | - |
| 1788331122 | 15.56° C | 75% | 1022.5 hPa | - | - | - | - |
| 1788330822 | 15° C | 76% | 1022.5 hPa | - | - | - | - |
| 1788330577 | 14.44° C | 79% | 1022.5 hPa | - | - | - | - |
| 1788330521 | 14.44° C | 79% | 1022.5 hPa | - | - | - | - |
| 1788330220 | 14.44° C | 79% | 1022.5 hPa | - | - | - | - |
| 1788329920 | 13.89° C | 79% | 1022.6 hPa | - | - | - | - |
| 1788329619 | 13.89° C | 79% | 1022.6 hPa | - | - | - | - |
| 1788329319 | 14.44° C | 82% | 1022.6 hPa | - | - | - | - |
| 1788329018 | 14.44° C | 79% | 1022.6 hPa | - | - | - | - |
| 1788328718 | 14.44° C | 79% | 1022.5 hPa | - | - | - | - |
| 1788328417 | 14.44° C | 81% | 1022.5 hPa | - | - | - | - |
* Rain since midnight (hover to see other rain measurements)
** Current wind speed in m/s (hover to see current wind gust speed)